Cumberland, WI

9:33 PM CST on December 08, 2019 (GMT -0600)
Cumberland Municipal

Weather History for KUBE - October, 2019

Change the Weather History Date:

Friday, October 18, 2019

  Actual Average (WUND) Record (WUND)
Temperature  
Mean Temperature 48 °F -  
Max Temperature 60 °F - - (-1)
Min Temperature 35 °F - - (-1)
Degree Days  
Heating Degree Days 18    
Moisture  
Dew Point 37 °F    
Average Humidity 69    
Maximum Humidity 93    
Minimum Humidity 42    
Precipitation  
Precipitation 0.00 in - - ()
Sea Level Pressure  
Sea Level Pressure 29.77 in    
Wind  
Wind Speed 10 mph (SE)    
Max Wind Speed 22 mph    
Max Gust Speed 29 mph    
Visibility 10 miles    
Events      
Averages and records for this station are not official NWS values.
T = Trace of Precipitation, MM = Missing Value Source: NWS Daily Summary

Daily Weather History Graph

Daily Weather History Graph

Search for Another Location

Airport or City:

Astronomy

Oct. 18, 2019 Rise Set
Actual Time 7:27 AM CDT 6:17 PM CDT
Civil Twilight 6:57 AM CDT 6:47 PM CDT
Nautical Twilight 6:23 AM CDT 7:21 PM CDT
Astronomical Twilight 5:49 AM CDT 7:56 PM CDT
Moon 9:22 PM CDT (10/18) 12:12 PM CDT (10/18)
Length of Visible Light 11h 49m
Length of Day
10h 49m
Waning Gibbous, 78% of the Moon is Illuminated
Oct 18
Waning Gibbous
Oct 21
Last Quarter
Oct 27
New
Nov 4
First Quarter
Nov 12
Full

Hourly Weather History & Observations

Time (CDT) Temp. Windchill Dew Point Humidity Pressure Visibility Wind Dir Wind Speed Gust Speed Precip Events Conditions
12:15 AM 37.4 °F 32.8 °F 33.8 °F 87% 29.95 in 10.0 mi SE 5.8 mph - N/A   Clear
12:35 AM 37.4 °F 32.8 °F 33.8 °F 87% 29.94 in 10.0 mi SE 5.8 mph - N/A   Clear
12:55 AM 37.4 °F 33.8 °F 33.8 °F 87% 29.94 in 10.0 mi SE 4.6 mph - N/A   Clear
1:15 AM 35.6 °F 32.8 °F 33.8 °F 93% 29.94 in 10.0 mi SE 3.5 mph - N/A   Clear
1:35 AM 35.6 °F - 33.8 °F 93% 29.94 in 10.0 mi Calm Calm - N/A   Clear
1:55 AM 35.6 °F 32.8 °F 33.8 °F 93% 29.94 in 10.0 mi SE 3.5 mph - N/A   Clear
2:15 AM 35.6 °F 30.7 °F 33.8 °F 93% 29.93 in 10.0 mi ESE 5.8 mph - N/A   Clear
2:35 AM 35.6 °F 29.2 °F 33.8 °F 93% 29.93 in 10.0 mi SE 8.1 mph - N/A   Clear
2:55 AM 35.6 °F 30.7 °F 33.8 °F 93% 29.93 in 10.0 mi SE 5.8 mph - N/A   Clear
3:15 AM 35.6 °F 29.9 °F 33.8 °F 93% 29.92 in 10.0 mi ESE 6.9 mph - N/A   Clear
3:35 AM 35.6 °F 29.9 °F 33.8 °F 93% 29.91 in 10.0 mi SE 6.9 mph - N/A   Clear
3:55 AM 35.6 °F 28.0 °F 33.8 °F 93% 29.91 in 10.0 mi ESE 10.4 mph - N/A   Clear
4:15 AM 35.6 °F 29.2 °F 33.8 °F 93% 29.91 in 10.0 mi ESE 8.1 mph - N/A   Clear
4:35 AM 35.6 °F 29.2 °F 33.8 °F 93% 29.90 in 10.0 mi SE 8.1 mph - N/A   Clear
5:15 AM 35.6 °F 28.6 °F 33.8 °F 93% 29.88 in 10.0 mi SE 9.2 mph - N/A   Clear
5:35 AM 35.6 °F 29.9 °F 33.8 °F 93% 29.88 in 10.0 mi SE 6.9 mph - N/A   Clear
5:55 AM 35.6 °F 30.7 °F 33.8 °F 93% 29.87 in 10.0 mi SE 5.8 mph - N/A   Clear
6:15 AM 35.6 °F 28.6 °F 33.8 °F 93% 29.87 in 10.0 mi SE 9.2 mph - N/A   Clear
6:35 AM 35.6 °F 28.0 °F 33.8 °F 93% 29.86 in 10.0 mi SE 10.4 mph - N/A   Clear
6:55 AM 35.6 °F 28.0 °F 33.8 °F 93% 29.86 in 10.0 mi SE 10.4 mph - N/A   Clear
7:15 AM 35.6 °F 28.0 °F 33.8 °F 93% 29.85 in 10.0 mi SE 10.4 mph - N/A   Clear
7:35 AM 35.6 °F 28.6 °F 33.8 °F 93% 29.84 in 10.0 mi SE 9.2 mph - N/A   Clear
7:55 AM 37.4 °F 30.8 °F 33.8 °F 87% 29.84 in 10.0 mi SE 9.2 mph - N/A   Clear
8:15 AM 37.4 °F 30.3 °F 33.8 °F 87% 29.84 in 10.0 mi SE 10.4 mph - N/A   Clear
8:35 AM 39.2 °F 32.0 °F 33.8 °F 81% 29.83 in 10.0 mi SE 11.5 mph 16.1 mph N/A   Clear
8:55 AM 41.0 °F 33.1 °F 35.6 °F 81% 29.83 in 10.0 mi SE 15.0 mph 19.6 mph N/A   Clear
9:15 AM 41.0 °F 33.5 °F 35.6 °F 81% 29.82 in 10.0 mi SE 13.8 mph 21.9 mph N/A   Clear
9:35 AM 42.8 °F 35.4 °F 35.6 °F 76% 29.82 in 10.0 mi SE 15.0 mph 19.6 mph N/A   Clear
9:55 AM 44.6 °F 37.8 °F 35.6 °F 71% 29.81 in 10.0 mi SE 15.0 mph 20.7 mph N/A   Clear
10:15 AM 44.6 °F 38.4 °F 35.6 °F 71% 29.81 in 10.0 mi SE 12.7 mph 19.6 mph N/A   Clear
10:35 AM 46.4 °F 40.1 °F 35.6 °F 66% 29.80 in 10.0 mi SE 15.0 mph 19.6 mph N/A   Clear
10:55 AM 48.2 °F - 35.6 °F 62% 29.79 in 10.0 mi SSE 16.1 mph 23.0 mph N/A   Clear
11:15 AM 50.0 °F - 37.4 °F 62% 29.78 in 10.0 mi SE 16.1 mph 24.2 mph N/A   Clear
11:35 AM 50.0 °F - 37.4 °F 62% 29.77 in 10.0 mi SE 15.0 mph 23.0 mph N/A   Clear
11:55 AM 53.6 °F - 37.4 °F 54% 29.76 in 10.0 mi SE 16.1 mph 21.9 mph N/A   Clear
12:15 PM 53.6 °F - 37.4 °F 54% 29.75 in 10.0 mi SE 15.0 mph - N/A   Clear
12:35 PM 55.4 °F - 37.4 °F 51% 29.74 in 10.0 mi SSE 15.0 mph 26.5 mph N/A   Clear
12:55 PM 55.4 °F - 39.2 °F 54% 29.74 in 10.0 mi SE 16.1 mph 23.0 mph N/A   Clear
1:15 PM 55.4 °F - 39.2 °F 54% 29.72 in 10.0 mi SE 18.4 mph 27.6 mph N/A   Clear
1:35 PM 55.4 °F - 39.2 °F 54% 29.71 in 10.0 mi SE 15.0 mph 25.3 mph N/A   Clear
1:55 PM 57.2 °F - 39.2 °F 51% 29.70 in 10.0 mi SE 18.4 mph 25.3 mph N/A   Clear
2:15 PM 59.0 °F - 39.2 °F 48% 29.69 in 10.0 mi SSE 19.6 mph 28.8 mph N/A   Clear
2:35 PM 59.0 °F - 39.2 °F 48% 29.69 in 10.0 mi SSE 15.0 mph 26.5 mph N/A   Clear
2:55 PM 59.0 °F - 37.4 °F 45% 29.67 in 10.0 mi SSE 15.0 mph 28.8 mph N/A   Clear
3:15 PM 60.8 °F - 37.4 °F 42% 29.66 in 10.0 mi SE 17.3 mph 25.3 mph N/A   Clear
3:35 PM 60.8 °F - 37.4 °F 42% 29.66 in 10.0 mi SE 21.9 mph 28.8 mph N/A   Clear
3:55 PM 60.8 °F - 37.4 °F 42% 29.66 in 10.0 mi SE 21.9 mph 27.6 mph N/A   Clear
4:15 PM 60.8 °F - 37.4 °F 42% 29.65 in 10.0 mi SE 17.3 mph 28.8 mph N/A   Clear
4:35 PM 60.8 °F - 37.4 °F 42% 29.65 in 10.0 mi SSE 16.1 mph 23.0 mph N/A   Clear
4:55 PM 60.8 °F - 37.4 °F 42% 29.64 in 10.0 mi SE 15.0 mph 21.9 mph N/A   Clear
5:15 PM 59.0 °F - 37.4 °F 45% 29.63 in 10.0 mi SE 12.7 mph 24.2 mph N/A   Clear
5:35 PM 59.0 °F - 37.4 °F 45% 29.63 in 10.0 mi SE 16.1 mph 23.0 mph N/A   Clear
5:55 PM 57.2 °F - 39.2 °F 51% 29.63 in 10.0 mi SE 15.0 mph 20.7 mph N/A   Clear
6:15 PM 55.4 °F - 39.2 °F 54% 29.62 in 10.0 mi SE 10.4 mph 23.0 mph N/A   Clear
6:35 PM 55.4 °F - 39.2 °F 54% 29.62 in 10.0 mi SE 12.7 mph 20.7 mph N/A   Clear
6:55 PM 55.4 °F - 37.4 °F 51% 29.63 in 10.0 mi SE 15.0 mph 23.0 mph N/A   Clear
7:15 PM 55.4 °F - 39.2 °F 54% 29.65 in 10.0 mi SSE 13.8 mph 19.6 mph N/A   Clear
7:35 PM 53.6 °F - 39.2 °F 58% 29.66 in 10.0 mi SE 11.5 mph - N/A   Clear
7:55 PM 53.6 °F - 39.2 °F 58% 29.65 in 10.0 mi SE 16.1 mph 20.7 mph N/A   Clear
8:15 PM 53.6 °F - 39.2 °F 58% 29.66 in 10.0 mi SSE 11.5 mph - N/A   Clear
8:35 PM 53.6 °F - 39.2 °F 58% 29.66 in 10.0 mi SSE 11.5 mph - N/A   Scattered Clouds
8:55 PM 53.6 °F - 39.2 °F 58% 29.66 in 10.0 mi SE 11.5 mph 18.4 mph N/A   Mostly Cloudy
9:15 PM 53.6 °F - 39.2 °F 58% 29.66 in 10.0 mi SSE 11.5 mph - N/A   Mostly Cloudy
9:35 PM 53.6 °F - 39.2 °F 58% 29.66 in 10.0 mi SE 12.7 mph - N/A   Overcast
9:55 PM 51.8 °F - 39.2 °F 62% 29.66 in 10.0 mi SSE 11.5 mph 17.3 mph N/A   Overcast
10:15 PM 51.8 °F - 39.2 °F 62% 29.66 in 10.0 mi SSE 9.2 mph 17.3 mph N/A   Overcast
10:35 PM 51.8 °F - 39.2 °F 62% 29.66 in 10.0 mi SE 11.5 mph - N/A   Overcast
10:55 PM 51.8 °F - 39.2 °F 62% 29.65 in 10.0 mi SE 9.2 mph - N/A   Overcast
11:15 PM 51.8 °F - 41.0 °F 67% 29.65 in 10.0 mi SSE 10.4 mph - N/A   Overcast
11:35 PM 53.6 °F - 39.2 °F 58% 29.65 in 10.0 mi SSE 10.4 mph - N/A   Overcast
11:55 PM 53.6 °F - 39.2 °F 58% 29.64 in 10.0 mi SSE 11.5 mph 16.1 mph N/A   Overcast